Weather reports worldwide

Advertisment
Braunschweig, Germany (10348): temperature & dewpoint: 06.07.2020 14:00:00 - 12.07.2020 14:00:00 (CEST)Braunschweig, Germany (10348): temperature 5cm & temperature -5cm: 06.07.2020 14:00:00 - 12.07.2020 14:00:00 (CEST)Braunschweig, Germany (10348): temperature -20cm & temperature -100cm: 06.07.2020 14:00:00 - 12.07.2020 14:00:00 (CEST)Braunschweig, Germany (10348): wind speed & gusts: 06.07.2020 14:00:00 - 12.07.2020 14:00:00 (CEST)Braunschweig, Germany (10348): wind direction: 06.07.2020 14:00:00 - 12.07.2020 14:00:00 (CEST)Braunschweig, Germany (10348): reduced air pressure: 06.07.2020 14:00:00 - 12.07.2020 14:00:00 (CEST)Braunschweig, Germany (10348): visibility: 06.07.2020 14:00:00 - 12.07.2020 14:00:00 (CEST)Braunschweig, Germany (10348): sunshine duration: 06.07.2020 14:00:00 - 12.07.2020 14:00:00 (CEST)Braunschweig, Germany (10348): precipitation: 06.07.2020 14:00:00 - 12.07.2020 14:00:00 (CEST)
Date & Time tt [°C] td [°C] tt 5cm [°C] tt -5cm [°C] tt -20cm [°C] tt -100cm [°C] ff [km/h] ff [kn] fx [km/h] fx [kn] dd ppp [hPa] vv [km] sd [min] rr [mm]
12.07.2020 14:00:00 19,5 8,3 25,5 25,5 17,4 16,5 13 7 30 16 NW 1027,7 51 59 0,0
12.07.2020 13:00:00 19,5 9,9 23,7 23,9 16,8 16,5 10 6 24 13 WNW 1027,8 71 50 0,0
12.07.2020 12:00:00 16,3 9,4 18,6 21,2 16,2 16,5 13 7 23 13 NNW 1028,1 59 29 0,0
12.07.2020 11:00:00 17,2 10,3 22,5 21,9 15,6 16,6 11 6 22 12 WSW 1028,1 75 38 0,0
12.07.2020 10:00:00 16,5 10,5 20,4 20,1 15,2 16,6 5 3 13 7 NW 1028,2 58 57 0,0
12.07.2020 09:00:00 14,7 9,5 18,7 16,5 15,0 16,6 3 2 8 4 W 1028,2 66 60 0,0
12.07.2020 08:00:00 12,1 10,1 13,0 13,0 15,1 16,6 5 3 8 4 WSW 1027,9 35 25 0,0
12.07.2020 07:00:00 10,2 9,0 10,7 11,4 15,3 16,6 6 4 10 5 SSW 1027,4 24 59 0,0
12.07.2020 06:00:00 9,5 9,2 8,4 10,3 15,7 16,6 5 3 8 4 SW 1026,9 18 19 0,0
12.07.2020 05:00:00 8,3 8,1 5,5 10,7 16,0 16,6 3 2 7 4 WSW 1026,7 0,3 0 0,0
12.07.2020 04:00:00 9,9 9,7 7,1 11,4 16,4 16,6 4 2 7 4 SW 1026,4 10 0 0,0
12.07.2020 03:00:00 9,8 9,7 6,8 12,0 16,8 16,6 3 2 6 3 WSW 1026,3 9 0 0,0
12.07.2020 02:00:00 10,9 10,7 8,7 13,0 17,1 16,6 3 2 8 4 SW 1026,2 15 0 0,0
12.07.2020 01:00:00 11,2 10,9 10,1 13,3 17,5 16,6 7 4 10 5 SW 1026,1 41 0 0,0
12.07.2020 00:00:00 11,3 10,8 9,1 14,2 17,9 16,6 5 3 10 5 WSW 1026,1 38 0 0,0
11.07.2020 23:00:00 12,0 11,5 10,8 15,3 18,2 16,6 7 4 10 6 SSW 1025,8 44 0 0,0
11.07.2020 22:00:00 12,5 11,5 11,6 16,9 18,4 16,6 2 1 5 3 SW 1025,4 64 4 0,0
11.07.2020 21:00:00 13,4 12,0 12,8 18,7 18,4 16,6 3 1 8 4 WSW 1025,1 75 40 0,0
11.07.2020 20:00:00 16,0 13,2 17,5 20,1 18,4 16,6 4 2 16 8 WSW 1024,8 75 31 0,0
11.07.2020 19:00:00 15,7 12,2 16,0 20,6 18,3 16,7 5 3 32 18 N 1024,6 71 21 4,1
11.07.2020 18:00:00 16,7 9,0 17,8 22,0 18,2 16,7 5 3 14 8 S 1024,1 73 25 0,0
11.07.2020 17:00:00 15,2 10,4 15,2 20,3 17,9 16,7 13 7 36 20 WNW 1024,3 56 13 0,0
11.07.2020 16:00:00 18,3 8,7 20,3 22,6 17,5 16,7 13 7 23 13 W 1023,6 28 36 0,0
11.07.2020 15:00:00 18,3 7,8 24,0 22,4 17,2 16,7 16 9 26 14 W 1023,5 56 33 0,0
11.07.2020 14:00:00 17,1 7,8 20,4 20,6 16,8 16,7 16 9 30 16 W 1023,7 40 5 0,0
11.07.2020 13:00:00 17,5 7,9 21,1 20,3 16,4 16,7 19 10 45 24 WNW 1023,3 43 27 0,0
11.07.2020 12:00:00 16,5 7,5 20,8 19,3 15,9 16,7 14 7 24 13 W 1023,2 67 20 0,0
11.07.2020 11:00:00 17,1 10,2 21,7 19,7 15,5 16,7 17 9 26 14 W 1022,8 53 39 0,0
11.07.2020 10:00:00 15,2 9,2 19,2 17,9 15,1 16,7 13 7 24 13 W 1022,6 68 54 0,0
11.07.2020 09:00:00 13,7 9,5 16,7 15,6 14,9 16,7 13 7 23 12 W 1022,4 53 57 0,0
11.07.2020 08:00:00 12,2 9,5 14,0 13,1 15,0 16,7 11 6 18 10 WSW 1021,9 40 60 0,0
11.07.2020 07:00:00 10,4 8,3 10,4 11,0 15,2 16,7 11 6 16 9 SW 1021,6 58 60 0,0
11.07.2020 06:00:00 9,4 8,2 8,5 10,2 15,6 16,7 9 5 12 6 SW 1021,0 39 26 0,0
11.07.2020 05:00:00 9,5 8,5 7,8 10,5 15,9 16,7 7 4 11 6 SW 1020,8 36 0 0,0
11.07.2020 04:00:00 10,0 8,9 8,4 11,0 16,2 16,7 7 4 14 7 WSW 1020,5 39 0 0,0
11.07.2020 03:00:00 10,4 9,4 8,7 11,6 16,6 16,7 8 4 11 6 WSW 1020,3 41 0 0,0
11.07.2020 02:00:00 10,9 9,8 9,8 12,4 16,9 16,7 7 4 11 6 SSW 1019,9 49 0 0,0
11.07.2020 01:00:00 11,7 10,0 9,6 12,8 17,3 16,7 7 4 15 8 WSW 1019,3 52 0 0,0
11.07.2020 00:00:00 12,2 9,9 10,6 13,6 17,6 16,7 10 5 23 12 W 1018,4 51 0 0,0
10.07.2020 23:00:00 13,8 10,0 13,3 14,9 17,8 16,7 11 6 23 12 W 1017,6 61 0 0,0
10.07.2020 22:00:00 14,3 11,2 13,9 15,7 18,1 16,7 8 4 14 7 W 1016,9 71 0 0,0
10.07.2020 21:00:00 14,7 10,6 14,4 16,4 18,3 16,7 9 5 20 11 WNW 1016,3 75 6 0,0
10.07.2020 20:00:00 14,6 10,6 14,7 16,6 18,5 16,7 15 8 29 16 W 1015,6 75 0 0,0
10.07.2020 19:00:00 15,0 11,2 16,0 17,5 18,8 16,7 16 9 24 13 WNW 1015,1 75 3 0,0
10.07.2020 18:00:00 14,4 11,6 14,6 17,1 19,0 16,7 14 7 34 18 W 1014,4 64 0 0,0
10.07.2020 17:00:00 14,8 12,0 15,1 18,1 19,3 16,7 18 10 43 23 W 1013,2 75 0 0,0
10.07.2020 16:00:00 14,7 12,7 15,1 19,0 19,4 16,7 26 14 47 25 WNW 1011,6 50 0 0,1
10.07.2020 15:00:00 16,2 14,5 16,2 21,0 19,2 16,7 24 13 55 30 W 1009,5 16 7 0,2
10.07.2020 14:00:00 20,9 15,2 23,8 23,6 18,9 16,7 27 15 48 26 WSW 1007,6 71 31 0,0
10.07.2020 13:00:00 21,7 14,9 24,9 23,7 18,4 16,7 27 14 48 26 WSW 1006,9 60 39 0,0
10.07.2020 12:00:00 20,9 15,2 21,4 23,9 17,9 16,7 23 13 39 21 SW 1006,6 48 20 0,0
10.07.2020 11:00:00 22,1 15,8 24,8 23,5 17,4 16,7 16 8 27 15 SSW 1006,0 75 30 0,0
10.07.2020 10:00:00 20,3 16,6 22,6 20,7 17,2 16,7 9 5 14 8 S 1006,1 54 14 0,0
10.07.2020 09:00:00 17,4 15,9 17,5 17,8 17,1 16,7 8 5 13 7 SSE 1006,7 53 1 0,0
10.07.2020 08:00:00 16,8 15,9 16,8 16,8 17,2 16,7 8 4 12 7 SSE 1007,2 53 0 0,0
10.07.2020 07:00:00 16,3 15,1 15,8 16,3 17,2 16,8 9 5 14 7 SE 1007,5 44 0 0,0
10.07.2020 06:00:00 16,0 15,3 15,5 16,1 17,4 16,8 6 3 13 7 SSE 1008,1 25 0 0,0
10.07.2020 05:00:00 15,9 15,2 15,3 16,0 17,5 16,8 7 4 15 8 SSE 1008,4 26 0 0,0
10.07.2020 04:00:00 16,0 15,7 15,6 16,1 17,7 16,8 10 5 17 9 SSE 1009,5 13 0 0,0
10.07.2020 03:00:00 16,0 15,7 15,2 16,5 17,8 16,8 7 4 10 6 SSE 1010,1 9 0 0,0
10.07.2020 02:00:00 16,4 16,0 15,8 17,1 17,9 16,8 4 2 10 5 SE 1010,6 14 0 0,0
10.07.2020 01:00:00 16,6 15,9 16,3 17,3 18,0 16,8 6 3 17 9 W 1011,0 20 0 0,6
10.07.2020 00:00:00 16,8 16,1 16,5 17,5 18,1 16,8 10 6 20 11 W 1011,4 4,1 0 0,5
09.07.2020 23:00:00 17,8 15,7 17,4 17,8 18,3 16,8 5 3 9 5 WSW 1011,4 43 0 0,0
09.07.2020 22:00:00 18,4 15,6 17,7 18,1 18,4 16,8 7 4 24 13 WSW 1011,3 46 0 0,0
09.07.2020 21:00:00 18,9 15,5 18,4 18,7 18,5 16,8 13 7 29 16 WSW 1011,1 40 0 0,0
09.07.2020 20:00:00 19,1 15,3 19,1 19,1 18,5 16,8 18 10 34 18 WSW 1011,1 52 0 0,0
09.07.2020 19:00:00 19,5 14,9 19,4 20,0 18,4 16,8 16 9 38 21 W 1011,2 60 0 0,0
09.07.2020 18:00:00 20,7 15,0 21,2 21,2 18,2 16,9 19 10 40 22 W 1010,8 46 3 0,0
09.07.2020 17:00:00 20,4 15,7 20,8 21,7 17,9 16,9 20 11 36 20 WSW 1010,8 56 3 0,8
09.07.2020 16:00:00 19,7 16,1 18,9 21,7 17,5 16,9 20 11 35 19 WSW 1010,9 18 1 0,0
09.07.2020 15:00:00 18,9 16,9 19,6 21,1 17,1 16,9 13 7 35 19 WSW 1011,3 32 9 0,0
09.07.2020 14:00:00 19,5 16,9 21,8 20,8 16,8 16,9 16 9 29 16 SW 1011,6 55 5 0,0
09.07.2020 13:00:00 17,9 16,3 17,9 18,6 16,7 16,9 10 6 20 11 SSW 1011,8 49 0 0,2
09.07.2020 12:00:00 16,3 15,4 16,1 17,6 16,5 16,9 8 4 18 10 S 1012,0 28 0 0,0
09.07.2020 11:00:00 15,5 14,8 15,5 17,2 16,4 16,9 11 6 17 9 SE 1012,4 6 0 1,3
09.07.2020 10:00:00 15,5 14,6 15,6 17,0 16,3 16,9 9 5 14 7 SSE 1013,1 11 0 1,1
09.07.2020 09:00:00 15,4 13,8 15,4 16,3 16,2 17,0 8 4 14 8 SSE 1013,7 22 0 0,0
09.07.2020 08:00:00 15,0 13,6 14,8 15,5 16,2 17,0 8 5 13 7 SSE 1014,2 15 0 0,0
09.07.2020 07:00:00 14,2 13,1 13,8 14,8 16,3 17,0 8 5 13 7 SSE 1014,4 11 0 0,0
09.07.2020 06:00:00 13,6 12,9 13,3 14,3 16,4 17,0 6 4 15 8 SE 1015,0 7 0 0,0
09.07.2020 05:00:00 13,6 12,9 13,2 14,5 16,5 17,0 9 5 14 7 SE 1015,1 7 0 0,0
09.07.2020 04:00:00 13,5 12,9 13,3 14,6 16,6 17,0 9 5 13 7 SE 1015,3 6 0 0,0
09.07.2020 03:00:00 13,5 12,9 13,2 14,8 16,8 17,0 7 4 9 5 SE 1015,6 5 0 0,0
09.07.2020 02:00:00 13,2 12,7 13,1 14,8 16,9 17,0 4 2 7 4 SE 1016,0 8 0 0,0
09.07.2020 01:00:00 13,1 12,8 12,9 15,0 17,1 17,0 2 1 4 2 SSE 1016,5 4,3 0 0,0
09.07.2020 00:00:00 12,8 12,5 12,4 15,1 17,2 17,0 2 1 4 2 SSE 1016,7 5 0 0,0
08.07.2020 23:00:00 13,4 12,9 13,2 15,6 17,4 17,1 3 1 5 3 S 1016,6 7 0 0,0
08.07.2020 22:00:00 13,6 12,8 13,4 16,0 17,5 17,1 2 1 7 4 NW 1016,7 7 0 0,0
08.07.2020 21:00:00 13,5 12,5 13,4 16,4 17,6 17,1 7 4 13 7 NW 1016,4 11 0 0,2
08.07.2020 20:00:00 14,4 13,4 14,4 17,2 17,7 17,1 4 2 11 6 WSW 1016,2 16 0 1,2
08.07.2020 19:00:00 15,4 12,2 14,6 18,2 17,6 17,1 6 3 12 7 W 1015,8 6 0 0,0
08.07.2020 18:00:00 16,0 11,8 17,5 19,1 17,5 17,1 8 4 15 8 WSW 1015,9 48 0 0,0
08.07.2020 17:00:00 15,6 11,6 17,6 19,2 17,3 17,1 10 5 15 8 W 1016,1 44 0 0,0
08.07.2020 16:00:00 14,8 11,7 16,0 18,5 17,1 17,1 11 6 20 11 WSW 1016,1 25 0 0,0
08.07.2020 15:00:00 15,9 11,3 19,2 20,2 16,9 17,2 11 6 19 10 WSW 1015,7 41 7 0,0
08.07.2020 14:00:00 14,7 11,0 16,6 18,7 16,6 17,2 11 6 18 10 WSW 1015,9 49 0 0,0
08.07.2020 13:00:00 14,4 10,9 16,9 18,6 16,4 17,2 8 4 15 8 W 1015,8 32 0 0,0
08.07.2020 12:00:00 13,8 11,0 15,1 17,9 16,2 17,2 6 3 12 7 WSW 1015,8 37 0 0,0
08.07.2020 11:00:00 12,9 10,8 13,0 16,5 16,1 17,2 5 3 8 5 SSW 1015,6 22 0 0,0
08.07.2020 10:00:00 11,9 10,8 12,4 14,4 16,1 17,2 4 2 8 4 S 1015,6 29 0 0,1
08.07.2020 09:00:00 11,9 10,4 11,9 14,0 16,2 17,2 6 3 10 6 W 1015,6 15 0 0,2
08.07.2020 08:00:00 11,8 10,4 11,5 13,7 16,3 17,2 5 3 13 7 WSW 1015,4 14 0 0,0
08.07.2020 07:00:00 11,9 10,7 11,7 13,7 16,4 17,2 2 1 11 6 W 1015,3 41 0 0,2
08.07.2020 06:00:00 12,0 10,1 11,6 13,7 16,6 17,2 4 2 6 4 S 1015,3 15 0 0,0
08.07.2020 05:00:00 12,0 10,1 11,7 13,7 16,8 17,2 2 1 7 4 W 1015,5 45 0 0,0
08.07.2020 04:00:00 11,9 9,7 11,3 13,6 17,0 17,2 5 3 11 6 WSW 1015,8 56 0 0,0
08.07.2020 03:00:00 12,2 9,6 11,3 13,8 17,2 17,2 6 4 14 8 SW 1016,2 48 0 0,0
08.07.2020 02:00:00 12,7 9,6 12,0 14,1 17,5 17,3 8 5 15 8 WSW 1016,7 61 0 0,0
08.07.2020 01:00:00 12,9 10,6 12,1 14,6 17,7 17,3 8 5 14 8 SW 1016,8 53 0 0,0
08.07.2020 00:00:00 12,7 11,4 12,2 15,0 18,0 17,3 6 3 10 5 SW 1017,0 41 0 0,0
07.07.2020 23:00:00 12,9 11,3 12,3 15,4 18,2 17,3 6 3 10 5 SW 1016,8 50 0 0,0
07.07.2020 22:00:00 13,2 11,4 12,4 15,9 18,5 17,3 6 3 16 8 SW 1017,1 32 0 0,1
07.07.2020 21:00:00 14,2 11,5 13,4 16,5 18,8 17,3 7 4 17 9 W 1017,4 35 0 0,0
07.07.2020 20:00:00 14,4 10,8 14,1 17,1 19,1 17,3 11 6 18 10 WSW 1017,0 64 0 0,0
07.07.2020 19:00:00 14,3 10,9 13,4 18,0 19,2 17,3 13 7 39 21 WSW 1017,2 60 0 0,0
07.07.2020 18:00:00 18,2 7,8 17,7 20,2 19,1 17,4 11 6 30 16 WSW 1016,6 75 0 0,0
07.07.2020 17:00:00 19,4 7,5 20,6 22,8 18,8 17,4 19 10 36 19 SW 1017,0 57 22 0,0
07.07.2020 16:00:00 19,4 7,4 23,7 23,4 18,5 17,4 18 10 32 18 WSW 1017,4 67 36 0,0
07.07.2020 15:00:00 18,9 6,9 22,5 22,8 18,0 17,4 18 10 29 16 WSW 1018,1 66 37 0,0
07.07.2020 14:00:00 18,3 7,3 23,2 22,7 17,6 17,4 21 11 32 18 WSW 1018,7 67 38 0,0
07.07.2020 13:00:00 17,1 6,9 20,6 21,4 17,2 17,4 17 9 30 16 W 1019,0 65 42 0,0
07.07.2020 12:00:00 15,5 7,2 18,2 19,5 16,8 17,4 14 8 28 15 W 1019,6 51 29 0,0
07.07.2020 11:00:00 14,9 6,8 19,5 18,9 16,4 17,4 15 8 28 15 WSW 1019,7 51 40 0,0
07.07.2020 10:00:00 14,1 8,8 15,4 17,9 16,1 17,4 16 9 27 14 W 1019,9 40 42 0,0
07.07.2020 09:00:00 13,9 8,8 16,8 16,3 16,0 17,4 14 8 23 12 WSW 1020,2 50 60 0,0
07.07.2020 08:00:00 12,6 9,1 14,4 13,9 16,0 17,4 14 8 23 12 WSW 1020,5 50 60 0,0
07.07.2020 07:00:00 11,4 9,1 11,9 12,2 16,3 17,4 13 7 19 11 WSW 1020,3 34 47 0,0
07.07.2020 06:00:00 10,4 8,9 9,5 11,3 16,6 17,4 10 5 19 10 WSW 1019,8 33 10 0,0
07.07.2020 05:00:00 10,6 9,2 9,3 11,8 16,9 17,5 10 5 21 11 WSW 1019,6 31 0 0,0
07.07.2020 04:00:00 11,3 9,7 10,0 12,6 17,2 17,5 12 6 22 12 WSW 1019,4 35 0 0,0
07.07.2020 03:00:00 12,3 10,2 11,8 13,3 17,4 17,5 12 6 21 11 WSW 1019,2 36 0 0,0
07.07.2020 02:00:00 12,1 10,2 11,6 13,5 17,7 17,5 10 6 21 11 WSW 1019,1 42 0 0,0
07.07.2020 01:00:00 12,3 10,3 11,4 13,9 18,1 17,5 11 6 18 10 WSW 1018,8 52 0 0,0
07.07.2020 00:00:00 12,5 10,6 11,7 14,4 18,4 17,5 11 6 22 12 WSW 1018,5 51 0 0,0
06.07.2020 23:00:00 12,5 10,6 11,7 14,8 18,8 17,5 12 7 29 16 WSW 1018,1 63 0 0,1
06.07.2020 22:00:00 13,2 10,2 12,7 15,3 19,1 17,5 10 5 22 12 WSW 1017,3 56 16 0,0
06.07.2020 21:00:00 14,0 10,0 13,7 16,8 19,4 17,5 17 9 30 16 WSW 1016,4 75 43 0,0
06.07.2020 20:00:00 14,0 10,5 14,5 18,4 19,5 17,5 18 10 28 15 WSW 1016,0 63 34 0,0
06.07.2020 19:00:00 13,0 10,9 13,3 18,6 19,6 17,5 15 8 34 18 W 1015,5 42 23 3,1
06.07.2020 18:00:00 14,5 11,5 16,5 20,6 19,6 17,5 16 9 47 25 W 1015,2 75 40 0,7
06.07.2020 17:00:00 15,9 10,1 18,4 20,9 19,5 17,5 21 11 43 23 W 1013,9 60 23 1,2
06.07.2020 16:00:00 16,2 8,9 16,9 23,3 19,3 17,5 28 15 45 24 WSW 1013,3 60 23 0,0
06.07.2020 15:00:00 16,3 8,5 17,5 22,1 19,2 17,5 29 16 51 28 WSW 1012,8 58 9 0,0
06.07.2020 14:00:00 14,1 9,0 14,5 21,3 19,0 17,5 27 14 54 29 WSW 1012,8 48 19 0,0

tt = temperature
td = dewpoint
tt 5cm = temperature 5cm
tt -5cm = temperature -5cm
tt -20cm = temperature -20cm
tt -100cm = temperature -100cm
ff = wind speed
fx = gusts
dd = wind direction
ppp = reduced air pressure
vv = visibility
sd = sunshine duration
rr = precipitation

Next stations